{"data":{"norad_id":63686,"intl_designator":"2025-085Y","name":"STARLINK-33880","alt_names":[],"object_type":"PAYLOAD","status":"ACTIVE","operator":null,"country":"US","launch_date":"2025-04-28","launch_site_code":"AFETR","launch_vehicle":null,"mission":null,"orbit_class":"UNKNOWN","rcs_meters":null,"size_class":null,"mass_kg":null,"dimensions":null,"purposes":["comms"],"wikipedia_slug":null,"has_3d_model":false,"image_url":null,"decayed_at":null,"tle_current":{"epoch":"2026-05-24T16:59:27.380256Z","epoch_age_seconds":90554,"freshness":"FRESH","line1":"1 63686U 25085Y   26144.70795579  .00013318  00000+0  49239-3 0  9990","line2":"2 63686  43.0003 321.8043 0000811 272.7529  87.3230 15.27593601 60600","mean_motion":15.27593601,"eccentricity":8.11e-5,"inclination_deg":43.0003,"raan_deg":321.8043,"arg_perigee_deg":272.7529,"mean_anomaly_deg":87.323,"bstar":0.00049239,"rev_number":6060,"period_min":94.265909405312,"perigee_km":482.45193116538,"apogee_km":483.5648089444,"semimajor_km":6861.1453700549,"source":"CELESTRAK","updated_at":"2026-05-25T13:38:20.095270Z"}}}